Location: ??
(35.1715°N, 139.6450°E)
Time: 09:53:48
(UTC+00:00)

ADEOS II - Pass Details

Date: 05 August 2024
Orbit: 795 x 798 km, 98.7° (Epoch: 15 September)

Event Time Altitude Azimuth Distance (km) Brightness Sun altitude
Rises 15:43:55 0° 35° (NE) 3,306 6.2 -36.4°
Reaches altitude 10° 15:47:19 10° 58° (ENE) 2,370 5.0 -36.2°
Enters shadow 15:49:13 14° 79° (E) 2,074 4.5 -36.1°
